📊 Raw Sensor Data
Showing records 34851 to 34875 of 84,867 total
| ID | Distance (ft) | Battery V | Battery A | Int Temp (°F) | Int Humid (%) | Ext Temp (°F) | Solar V | RSSI | SNR | Time Stamp |
|---|---|---|---|---|---|---|---|---|---|---|
| 50029 | 15.6 | 3.92 | 0 | 109 | 43 | 98 | 5.10 | -70 | 8 | 08/23/2025 02:45 PM |
| 50028 | 15.6 | 3.75 | 0 | 108 | 42 | 98 | 5.10 | -71 | 8 | 08/23/2025 02:30 PM |
| 50027 | 15.5 | 3.75 | 0 | 108 | 42 | 98 | 5.20 | -70 | 8 | 08/23/2025 02:15 PM |
| 50026 | 15.7 | 3.75 | 0 | 106 | 42 | 96 | 5.20 | -71 | 8 | 08/23/2025 02:00 PM |
| 50025 | 15.6 | 3.75 | 0 | 105 | 41 | 96 | 5.10 | -70 | 8 | 08/23/2025 01:45 PM |
| 50024 | 15.6 | 3.75 | 0 | 104 | 41 | 96 | 5.20 | -70 | 8 | 08/23/2025 01:30 PM |
| 50023 | 15.6 | 3.75 | 0 | 101 | 42 | 94 | 5.20 | -70 | 8 | 08/23/2025 01:15 PM |
| 50022 | 15.6 | 3.75 | 0 | 100 | 42 | 92 | 5.20 | -71 | 7 | 08/23/2025 01:00 PM |
| 50021 | 15.6 | 3.75 | 0 | 98 | 42 | 92 | 5.20 | -70 | 8 | 08/23/2025 12:45 PM |
| 50020 | 15.7 | 3.75 | 0 | 96 | 42 | 91 | 5.10 | -69 | 8 | 08/23/2025 12:30 PM |
| 50019 | 15.7 | 3.75 | 0 | 95 | 42 | 88 | 5.10 | -69 | 8 | 08/23/2025 12:15 PM |
| 50018 | 15.6 | 3.97 | 0 | 94 | 42 | 91 | 5.10 | -70 | 7 | 08/23/2025 12:00 PM |
| 50017 | 15.6 | 3.75 | 0 | 93 | 42 | 89 | 5.10 | -69 | 7 | 08/23/2025 11:45 AM |
| 50016 | 15.6 | 3.75 | 0 | 91 | 42 | 88 | 5.10 | -71 | 7 | 08/23/2025 11:30 AM |
| 50015 | 15.6 | 3.75 | 0 | 90 | 41 | 90 | 5.10 | -69 | 7 | 08/23/2025 11:15 AM |
| 50014 | 15.6 | 3.75 | 0 | 88 | 42 | 87 | 5.10 | -69 | 8 | 08/23/2025 11:00 AM |
| 50013 | 15.7 | 3.94 | 0 | 87 | 41 | 86 | 5.10 | -69 | 8 | 08/23/2025 10:45 AM |
| 50012 | 15.6 | 3.75 | 0 | 85 | 42 | 84 | 5.10 | -69 | 8 | 08/23/2025 10:30 AM |
| 50011 | 15.6 | 3.75 | 0 | 83 | 42 | 82 | 5.10 | -71 | 8 | 08/23/2025 10:15 AM |
| 50010 | 15.7 | 3.75 | 0 | 82 | 42 | 84 | 5.10 | -69 | 8 | 08/23/2025 10:00 AM |
| 50009 | 15.7 | 3.75 | 0 | 80 | 42 | 84 | 5.10 | -71 | 7 | 08/23/2025 09:45 AM |
| 50008 | 15.7 | 3.76 | 0 | 78 | 42 | 82 | 5.10 | -70 | 8 | 08/23/2025 09:30 AM |
| 50007 | 15.6 | 3.75 | 0 | 76 | 42 | 79 | 5.10 | -70 | 8 | 08/23/2025 09:15 AM |
| 50006 | 15.6 | 3.75 | 0 | 74 | 42 | 75 | 5.10 | -69 | 7 | 08/23/2025 09:00 AM |
| 50005 | 15.6 | 3.74 | 0 | 73 | 42 | 75 | 5.10 | -71 | 8 | 08/23/2025 08:45 AM |